Back to catalog

FENGYUN 1C DEB

AliveSSO
NORAD 30038·DEBRIS·🇨🇳 China

Launched May 10, 1999 from Taiyuan Satellite Launch Center

Loading…

Next Passes (next 24 hours)

TLE

FreshSource: Space-Track

Epoch: Sep 13, 2026, 21:41 UTC

1 30038U 99025NP  26256.90408449  .00001178  00000-0  26708-3 0  9991
2 30038  98.3927 243.9031 0254799 355.7185  60.6547 14.39980775 28513

Track FENGYUN 1C DEB in real time with AllMySat

Download on the App Store